Weather Roundup
Issued by NWS

Home | Current Version | Previous Version | Text Only | Print | Product List | Glossary On
Versions: 1 2 3 4 5 6 7 8 9 10 11 12 13 14 15 16 17 18 19 20 21 22 23 24 25 26 27 28 29 30 31 32 33 34 35 36 37 38 39 40 41 42 43 44 45 46 47 48 49 50
000
NZUS93 KARX 280310
HRRWXR

CURRENT HOURLY OBSERVATIONS ACROSS
MUCH OF THE UPPER MISSISSIPPI VALLEY
NATIONAL WEATHER SERVICE LA CROSSE WI
900 PM CST THU NOV 27 2014


...SOUTHEAST MINNESOTA...


CITY           SKY/WX    TMP DP  RH WIND       PRES   REMARKS
ROCHESTER      CLOUDY     5  -1  76 SE10      30.28F WCI -10
ROCHESTER/MAYO CLOUDY     5  -3  68 E5        30.30F WCI  -4
WINONA         PTCLDY    10   3  72 CALM      30.38F
AUSTIN         CLOUDY     5  -2  72 S7        30.30S WCI  -7
ALBERT LEA     CLOUDY     7   0  72 SE8       30.29S WCI  -6
DODGE CENTER   CLOUDY     5   0  78 SE8       30.27F WCI  -8
PRESTON        MOCLDY     4  -1  77 SE5       30.30F WCI  -5
OWATONNA       CLOUDY     5  -4  66 S7        30.28F WCI  -7
FARIBAULT      CLOUDY     5  -4  66 SE5       30.30F WCI  -4
$$

...ELSEWHERE IN MINNESOTA...


CITY           SKY/WX    TMP DP  RH WIND       PRES   REMARKS
MINNEAPOLIS    CLOUDY     6  -4  63 SE8       30.32F WCI  -7
INTNL FALLS    PTCLDY     0  -7  72 SE5       30.22F WCI -10
DULUTH         PTCLDY     5  -6  60 CALM      30.22F
RED WING       CLOUDY     9  -2  61 CALM      30.34S
REDWOOD FALLS  LGT SNOW   4  -1  80 SE14      30.25F WCI -14
MANKATO        CLOUDY     3  -6  66 S8        30.28F WCI -10
WORTHINGTON    CLOUDY     9   1  72 SE13      30.17F WCI  -7
FAIRMONT       CLOUDY     5  -2  72 S13       30.24F WCI -12
$$

...SOUTHWEST WISCONSIN...


CITY           SKY/WX    TMP DP  RH WIND       PRES   REMARKS
LA CROSSE      MOCLDY    12   2  64 S6        30.38F WCI   3
PRAIRIE DU CHI PTCLDY    11   1  64 CALM      30.39F
BOSCOBEL       PTCLDY    11   3  70 CALM      30.41F
LONE ROCK      MOCLDY    10   1  67 CALM      30.40S
PLATTEVILLE    MOCLDY    10   2  70 CALM      30.38F
FORT MC COY    MOCLDY     5   1  84 CALM      30.38F
CAMP DOUGLAS   CLOUDY     4   3  96 CALM      30.36F
VIROQUA        FAIR       8   1  75 CALM      30.32F
WIS DELLS      PTCLDY     4   0  86 CALM      30.36S
$$

...ELSEWHERE IN WISCONSIN...


CITY           SKY/WX    TMP DP  RH WIND       PRES   REMARKS
MILWAUKEE      PTCLDY    15   7  70 NW5       30.39S WCI   8
MADISON        MOCLDY     8   4  83 N3        30.37F
GREEN BAY      PTCLDY     5   0  79 W6        30.37F WCI  -6
EAU CLAIRE     MOCLDY     7  -1  70 SE5       30.33F WCI  -2
BLACK RVR FLS  FAIR       4   0  83 CALM      30.37S
MEDFORD        PTCLDY    -2  -6  84 CALM      30.28S
WAUSAU         PTCLDY     2  -3  80 CALM      30.30F
WIS RAPIDS     MOCLDY    -1  -6  79 CALM      30.36F
MARSHFIELD     PTCLDY    -1  -5  82 CALM      30.31F
RICE LAKE      MOCLDY     3  -2  78 CALM      30.32F
$$

...NORTHEAST IOWA...


CITY           SKY/WX    TMP DP  RH WIND       PRES   REMARKS
DECORAH        CLOUDY     7   0  72 CALM      30.32F
MASON CITY     CLOUDY     7   0  73 S13       30.32F WCI  -9
CHARLES CITY   CLOUDY     7   0  72 SE8       30.33F WCI  -6
OELWEIN        CLOUDY     9   1  72 S3        30.36F
$$

...ELSEWHERE IN IOWA...


CITY           SKY/WX    TMP DP  RH WIND       PRES   REMARKS
DES MOINES     CLOUDY    14   4  64 SE8       30.34F WCI   3
IOWA CITY      PTCLDY    12   4  70 SW6       30.43S WCI   3
FORT DODGE     CLOUDY     9   0  66 SE6       30.30F WCI  -1
$$

...NORTHERN ILLINOIS...


CITY           SKY/WX    TMP DP  RH WIND       PRES   REMARKS
CHICAGO-OHARE  PTCLDY    16   9  74 CALM      30.39S
CHICAGO-MIDWAY MOCLDY    20  10  65 NW6       30.41R WCI  12
MOLINE         PTCLDY    13   6  74 CALM      30.41F
ROCKFORD       CLOUDY    13   3  64 W3        30.42S
PEORIA         PTCLDY    14   6  70 W3        30.45R
$$

NOTE: "FAIR" INDICATES FEW OR NO CLOUDS BELOW 12,000 FEET WITH NO
SIGNIFICANT WEATHER AND/OR OBSTRUCTIONS TO VISIBILITY. WIND
SPEEDS ARE IN MILES-PER-HOUR.



USA.gov is the U.S. government's official web portal to all federal, state and local government web resources and services.